User: anonymous   Login
Location: La Comballaz
(46.3780°N, 7.0817°E)
Time: 09:41:22
(UTC+00:00)
Language:

DIWATA 2B (PO-101) - Orbit

View from above orbital plane
View from above orbital plane
View from above satellite
View from above satellite

Ground track
Ground track

The orbit data is extracted from the following two-line orbital elements,

1 43678U 18084H   22333.79797057  .00000622  00000-0  66286-4 0  9995
2 43678  97.9935 109.2764 0011123  99.0187 261.2315 14.92507984222514
Epoch (UTC): 29 November 2022 19:09:04
Eccentricity: 0.0011123
inclination: 97.9935°
perigee height: 582 km
apogee height: 598 km
right ascension of ascending node: 109.2764°
argument of perigee: 99.0187°
revolutions per day: 14.92507984
mean anomaly at epoch: 261.2315°
orbit number at epoch: 22251

The dashed part of the orbit path shows where the satellite is in the earth's shadow,  

DLR